owner,sensor,date,latitude,longitude,vertical_datum,direction_of_sea_water_velocity,sea_water_speed,upward_sea_water_velocity,qcFlag 
TABS,ioos:station:TABS:G:1,1997-03-11T00:00:00Z,29.5500,-93.4666,2.0,0.0,0.0,-99999.0,'11133222,11111222,99999999' 
TABS,ioos:station:TABS:G:1,1997-03-11T17:30:00Z,29.5500,-93.4666,2.0,272.218163,11.62871016,-99999.0,'11111222,11111222,99999999' 
TABS,ioos:station:TABS:G:1,1997-03-11T18:00:00Z,29.5500,-93.4666,2.0,296.1052139,7.795184411,-99999.0,'11133222,11111222,99999999' 
TABS,ioos:station:TABS:G:1,1997-03-11T18:30:00Z,29.5500,-93.4666,2.0,297.6887101,10.26552483,-99999.0,'11111222,11111222,99999999' 
TABS,ioos:station:TABS:G:1,1997-03-11T19:00:00Z,29.5500,-93.4666,2.0,311.9966389,14.03413695,-99999.0,'11111222,11111222,99999999' 
TABS,ioos:station:TABS:G:1,1997-03-11T19:30:00Z,29.5500,-93.4666,2.0,305.093336,13.48048219,-99999.0,'11111222,11111222,99999999' 
TABS,ioos:station:TABS:G:1,1997-03-11T20:00:00Z,29.5500,-93.4666,2.0,305.045732,15.83002527,-99999.0,'11111222,11111222,99999999' 
TABS,ioos:station:TABS:G:1,1997-03-11T20:30:00Z,29.5500,-93.4666,2.0,309.6379882,13.54379932,-99999.0,'11111222,11111222,99999999' 
TABS,ioos:station:TABS:G:1,1997-03-11T21:00:00Z,29.5500,-93.4666,2.0,298.3748772,14.72961642,-99999.0,'11111222,11111222,99999999' 
TABS,ioos:station:TABS:G:1,1997-03-11T21:30:00Z,29.5500,-93.4666,2.0,307.2130716,14.03825132,-99999.0,'11111222,11111222,99999999' 
TABS,ioos:station:TABS:G:1,1997-03-11T22:00:00Z,29.5500,-93.4666,2.0,295.2721953,14.66339661,-99999.0,'11111222,11111222,99999999' 
TABS,ioos:station:TABS:G:1,1997-03-11T22:30:00Z,29.5500,-93.4666,2.0,306.1418359,9.5967755,-99999.0,'11133222,11111222,99999999' 
TABS,ioos:station:TABS:G:1,1997-03-11T23:00:00Z,29.5500,-93.4666,2.0,303.8768879,13.63460304,-99999.0,'11111222,11111222,99999999' 
TABS,ioos:station:TABS:G:1,1997-03-11T23:30:00Z,29.5500,-93.4666,2.0,311.5306961,8.76297324,-99999.0,'11133222,11111222,99999999' 
TABS,ioos:station:TABS:G:1,1997-03-12T00:00:00Z,29.5500,-93.4666,2.0,319.1176086,7.287866629,-99999.0,'11133222,11111222,99999999' 
TABS,ioos:station:TABS:G:1,1997-03-12T00:30:00Z,29.5500,-93.4666,2.0,328.1026439,7.89169817,-99999.0,'11133222,11111222,99999999' 
TABS,ioos:station:TABS:G:1,1997-03-12T01:00:00Z,29.5500,-93.4666,2.0,34.70298078,4.707366567,-99999.0,'11133222,11111222,99999999' 
TABS,ioos:station:TABS:G:1,1997-03-12T01:30:00Z,29.5500,-93.4666,2.0,109.1335985,3.630564694,-99999.0,'11133222,11111222,99999999' 
TABS,ioos:station:TABS:G:1,1997-03-12T02:00:00Z,29.5500,-93.4666,2.0,134.9998948,4.638620485,-99999.0,'11133222,11111222,99999999' 
TABS,ioos:station:TABS:G:1,1997-03-12T02:30:00Z,29.5500,-93.4666,2.0,142.0953047,5.094830714,-99999.0,'11133222,11111222,99999999' 
TABS,ioos:station:TABS:G:1,1997-03-12T03:00:00Z,29.5500,-93.4666,2.0,170.1015527,6.050057851,-99999.0,'11133222,11111222,99999999' 
TABS,ioos:station:TABS:G:1,1997-03-12T03:30:00Z,29.5500,-93.4666,2.0,162.4500418,5.936303564,-99999.0,'11133222,11111222,99999999' 
TABS,ioos:station:TABS:G:1,1997-03-12T04:00:00Z,29.5500,-93.4666,2.0,230.3142176,7.939584372,-99999.0,'11133222,11111222,99999999' 
TABS,ioos:station:TABS:G:1,1997-03-12T04:30:00Z,29.5500,-93.4666,2.0,250.2147185,6.174479735,-99999.0,'11133222,11111222,99999999' 
TABS,ioos:station:TABS:G:1,1997-03-12T05:00:00Z,29.5500,-93.4666,2.0,285.2357944,5.099215626,-99999.0,'11133222,11111222,99999999' 
TABS,ioos:station:TABS:G:1,1997-03-12T05:30:00Z,29.5500,-93.4666,2.0,278.9360139,4.828602282,-99999.0,'11133222,11111222,99999999' 
TABS,ioos:station:TABS:G:1,1997-03-12T06:00:00Z,29.5500,-93.4666,2.0,316.6494469,3.685552876,-99999.0,'11133222,11111222,99999999' 
TABS,ioos:station:TABS:G:1,1997-03-12T06:30:00Z,29.5500,-93.4666,2.0,296.7576765,1.332704018,-99999.0,'11133222,11111222,99999999' 
TABS,ioos:station:TABS:G:1,1997-03-12T07:00:00Z,29.5500,-93.4666,2.0,270.0004209,6.41,-99999.0,'11133222,11111222,99999999' 
TABS,ioos:station:TABS:G:1,1997-03-12T07:30:00Z,29.5500,-93.4666,2.0,280.4664633,9.853943373,-99999.0,'11133222,11111222,99999999' 
TABS,ioos:station:TABS:G:1,1997-03-12T08:00:00Z,29.5500,-93.4666,2.0,291.6045943,16.18715849,-99999.0,'11111222,11111222,99999999' 
TABS,ioos:station:TABS:G:1,1997-03-12T08:30:00Z,29.5500,-93.4666,2.0,283.7716528,16.25733681,-99999.0,'11111222,11111222,99999999' 
TABS,ioos:station:TABS:G:1,1997-03-12T09:00:00Z,29.5500,-93.4666,2.0,287.2225752,17.63048496,-99999.0,'11111222,11111222,99999999' 
TABS,ioos:station:TABS:G:1,1997-03-12T09:30:00Z,29.5500,-93.4666,2.0,282.8806129,21.39842284,-99999.0,'11111222,11111222,99999999' 
TABS,ioos:station:TABS:G:1,1997-03-12T10:00:00Z,29.5500,-93.4666,2.0,288.7870254,22.66763331,-99999.0,'11111222,11111222,99999999' 
TABS,ioos:station:TABS:G:1,1997-03-12T10:30:00Z,29.5500,-93.4666,2.0,294.0600799,19.7454653,-99999.0,'11111222,11111222,99999999' 
TABS,ioos:station:TABS:G:1,1997-03-12T11:00:00Z,29.5500,-93.4666,2.0,284.8966633,16.80476123,-99999.0,'11111222,11111222,99999999' 
TABS,ioos:station:TABS:G:1,1997-03-12T11:30:00Z,29.5500,-93.4666,2.0,293.4928197,18.6890904,-99999.0,'11111222,11111222,99999999' 
TABS,ioos:station:TABS:G:1,1997-03-12T12:00:00Z,29.5500,-93.4666,2.0,300.9766699,15.64067134,-99999.0,'11111222,11111222,99999999' 
TABS,ioos:station:TABS:G:1,1997-03-12T12:30:00Z,29.5500,-93.4666,2.0,318.6767999,14.88695066,-99999.0,'11111222,11111222,99999999' 
TABS,ioos:station:TABS:G:1,1997-03-12T13:00:00Z,29.5500,-93.4666,2.0,334.5093889,10.73501281,-99999.0,'11111222,11111222,99999999' 
TABS,ioos:station:TABS:G:1,1997-03-12T13:30:00Z,29.5500,-93.4666,2.0,338.4063938,15.3793888,-99999.0,'11111222,11111222,99999999' 
TABS,ioos:station:TABS:G:1,1997-03-12T14:00:00Z,29.5500,-93.4666,2.0,0.000210459,9.83,-99999.0,'11133222,11111222,99999999' 
TABS,ioos:station:TABS:G:1,1997-03-12T14:30:00Z,29.5500,-93.4666,2.0,27.09899443,7.200451375,-99999.0,'11133222,11111222,99999999' 
TABS,ioos:station:TABS:G:1,1997-03-12T15:00:00Z,29.5500,-93.4666,2.0,27.08664719,7.862340618,-99999.0,'11133222,11111222,99999999' 
TABS,ioos:station:TABS:G:1,1997-03-12T15:30:00Z,29.5500,-93.4666,2.0,26.08068129,8.461583776,-99999.0,'11133222,11111222,99999999' 
TABS,ioos:station:TABS:G:1,1997-03-12T16:00:00Z,29.5500,-93.4666,2.0,22.04574744,13.50760156,-99999.0,'11111222,11111222,99999999' 
TABS,ioos:station:TABS:G:1,1997-03-12T16:30:00Z,29.5500,-93.4666,2.0,26.5871687,11.66333143,-99999.0,'11111222,11111222,99999999' 
TABS,ioos:station:TABS:G:1,1997-03-12T17:00:00Z,29.5500,-93.4666,2.0,23.52023104,13.80708876,-99999.0,'11111222,11111222,99999999' 
TABS,ioos:station:TABS:G:1,1997-03-12T17:30:00Z,29.5500,-93.4666,2.0,16.35086044,11.65121453,-99999.0,'11111222,11111222,99999999' 
TABS,ioos:station:TABS:G:1,1997-03-12T18:00:00Z,29.5500,-93.4666,2.0,6.158286836,15.28821769,-99999.0,'11111222,11111222,99999999' 
TABS,ioos:station:TABS:G:1,1997-03-12T18:30:00Z,29.5500,-93.4666,2.0,0.000210459,20.11,-99999.0,'11111222,11111222,99999999' 
TABS,ioos:station:TABS:G:1,1997-03-12T19:00:00Z,29.5500,-93.4666,2.0,3.221243142,18.50924094,-99999.0,'11111222,11111222,99999999' 
TABS,ioos:station:TABS:G:1,1997-03-12T19:30:00Z,29.5500,-93.4666,2.0,12.09493925,21.33355338,-99999.0,'11111222,11111222,99999999' 
TABS,ioos:station:TABS:G:1,1997-03-12T20:00:00Z,29.5500,-93.4666,2.0,15.5827849,18.87371982,-99999.0,'11111222,11111222,99999999' 
TABS,ioos:station:TABS:G:1,1997-03-12T20:30:00Z,29.5500,-93.4666,2.0,7.733790473,18.80100529,-99999.0,'11111222,11111222,99999999' 
TABS,ioos:station:TABS:G:1,1997-03-12T21:00:00Z,29.5500,-93.4666,2.0,5.290933122,16.15884278,-99999.0,'11111222,11111222,99999999' 
TABS,ioos:station:TABS:G:1,1997-03-12T21:30:00Z,29.5500,-93.4666,2.0,0.472936081,18.1806188,-99999.0,'11111222,11111222,99999999' 
TABS,ioos:station:TABS:G:1,1997-03-12T22:00:00Z,29.5500,-93.4666,2.0,353.0071298,18.31625781,-99999.0,'11111222,11111222,99999999' 
TABS,ioos:station:TABS:G:1,1997-03-12T22:30:00Z,29.5500,-93.4666,2.0,346.5045087,15.94015056,-99999.0,'11111222,11111222,99999999' 
TABS,ioos:station:TABS:G:1,1997-03-12T23:00:00Z,29.5500,-93.4666,2.0,334.0713316,17.72416712,-99999.0,'11111222,11111222,99999999' 
TABS,ioos:station:TABS:G:1,1997-03-12T23:30:00Z,29.5500,-93.4666,2.0,334.0979949,17.39777285,-99999.0,'11111222,11111222,99999999' 
TABS,ioos:station:TABS:G:1,1997-03-13T00:00:00Z,29.5500,-93.4666,2.0,348.1618291,12.33230716,-99999.0,'11111222,11111222,99999999' 
TABS,ioos:station:TABS:G:1,1997-03-13T00:30:00Z,29.5500,-93.4666,2.0,355.2047578,8.971404572,-99999.0,'11133222,11111222,99999999' 
TABS,ioos:station:TABS:G:1,1997-03-13T01:00:00Z,29.5500,-93.4666,2.0,12.91869152,7.335673112,-99999.0,'11133222,11111222,99999999' 
TABS,ioos:station:TABS:G:1,1997-03-13T01:30:00Z,29.5500,-93.4666,2.0,35.27991201,3.099193443,-99999.0,'11133222,11111222,99999999' 
TABS,ioos:station:TABS:G:1,1997-03-13T02:00:00Z,29.5500,-93.4666,2.0,346.6587824,2.600173071,-99999.0,'11133222,11111222,99999999' 
TABS,ioos:station:TABS:G:1,1997-03-13T02:30:00Z,29.5500,-93.4666,2.0,335.8166548,4.735609781,-99999.0,'11133222,11111222,99999999' 
TABS,ioos:station:TABS:G:1,1997-03-13T03:00:00Z,29.5500,-93.4666,2.0,349.4831538,6.519524523,-99999.0,'11133222,11111222,99999999' 
TABS,ioos:station:TABS:G:1,1997-03-13T03:30:00Z,29.5500,-93.4666,2.0,312.1662113,6.435472011,-99999.0,'11133222,11111222,99999999' 
TABS,ioos:station:TABS:G:1,1997-03-13T04:00:00Z,29.5500,-93.4666,2.0,344.0693497,5.428489661,-99999.0,'11133222,11111222,99999999' 
TABS,ioos:station:TABS:G:1,1997-03-13T04:30:00Z,29.5500,-93.4666,2.0,340.8852001,7.72598861,-99999.0,'11133222,11111222,99999999' 
TABS,ioos:station:TABS:G:1,1997-03-13T05:00:00Z,29.5500,-93.4666,2.0,328.3886575,9.100296698,-99999.0,'11133222,11111222,99999999' 
TABS,ioos:station:TABS:G:1,1997-03-13T05:30:00Z,29.5500,-93.4666,2.0,318.5277755,10.34335536,-99999.0,'11111222,11111222,99999999' 
TABS,ioos:station:TABS:G:1,1997-03-13T06:00:00Z,29.5500,-93.4666,2.0,310.7332841,14.16017302,-99999.0,'11111222,11111222,99999999' 
TABS,ioos:station:TABS:G:1,1997-03-13T06:30:00Z,29.5500,-93.4666,2.0,303.9989454,15.451398,-99999.0,'11111222,11111222,99999999' 
TABS,ioos:station:TABS:G:1,1997-03-13T07:00:00Z,29.5500,-93.4666,2.0,311.450413,15.30286901,-99999.0,'11111222,11111222,99999999' 
TABS,ioos:station:TABS:G:1,1997-03-13T07:30:00Z,29.5500,-93.4666,2.0,308.767592,11.65839183,-99999.0,'11111222,11111222,99999999' 
TABS,ioos:station:TABS:G:1,1997-03-13T08:00:00Z,29.5500,-93.4666,2.0,306.8702323,14.9,-99999.0,'11111222,11111222,99999999' 
TABS,ioos:station:TABS:G:1,1997-03-13T08:30:00Z,29.5500,-93.4666,2.0,308.943241,18.96441141,-99999.0,'11111222,11111222,99999999' 
TABS,ioos:station:TABS:G:1,1997-03-13T09:00:00Z,29.5500,-93.4666,2.0,313.1607054,19.60403275,-99999.0,'11111222,11111222,99999999' 
TABS,ioos:station:TABS:G:1,1997-03-13T09:30:00Z,29.5500,-93.4666,2.0,311.5101441,17.30671835,-99999.0,'11111222,11111222,99999999' 
TABS,ioos:station:TABS:G:1,1997-03-13T10:00:00Z,29.5500,-93.4666,2.0,307.1802021,16.26623804,-99999.0,'11111222,11111222,99999999' 
TABS,ioos:station:TABS:G:1,1997-03-13T10:30:00Z,29.5500,-93.4666,2.0,295.5482303,14.86324998,-99999.0,'11111222,11111222,99999999' 
TABS,ioos:station:TABS:G:1,1997-03-13T11:00:00Z,29.5500,-93.4666,2.0,308.9383431,18.01173229,-99999.0,'11111222,11111222,99999999' 
TABS,ioos:station:TABS:G:1,1997-03-13T11:30:00Z,29.5500,-93.4666,2.0,303.2909815,17.10736976,-99999.0,'11111222,11111222,99999999' 
TABS,ioos:station:TABS:G:1,1997-03-13T12:00:00Z,29.5500,-93.4666,2.0,299.120214,11.93905356,-99999.0,'11111222,11111222,99999999' 
TABS,ioos:station:TABS:G:1,1997-03-13T12:30:00Z,29.5500,-93.4666,2.0,306.7487331,13.20402969,-99999.0,'11111222,11111222,99999999' 
TABS,ioos:station:TABS:G:1,1997-03-13T13:00:00Z,29.5500,-93.4666,2.0,299.1511983,10.40831398,-99999.0,'11111222,11111222,99999999' 
TABS,ioos:station:TABS:G:1,1997-03-13T13:30:00Z,29.5500,-93.4666,2.0,287.5194885,8.90294895,-99999.0,'11133222,11111222,99999999' 
TABS,ioos:station:TABS:G:1,1997-03-13T14:00:00Z,29.5500,-93.4666,2.0,279.7850257,8.767536712,-99999.0,'11133222,11111222,99999999' 
TABS,ioos:station:TABS:G:1,1997-03-13T14:30:00Z,29.5500,-93.4666,2.0,261.3322122,4.976836345,-99999.0,'11133222,11111222,99999999' 
TABS,ioos:station:TABS:G:1,1997-03-13T15:00:00Z,29.5500,-93.4666,2.0,249.4786681,3.822564584,-99999.0,'11133222,11111222,99999999' 
TABS,ioos:station:TABS:G:1,1997-03-13T15:30:00Z,29.5500,-93.4666,2.0,219.7737691,4.657982396,-99999.0,'11133222,11111222,99999999' 
TABS,ioos:station:TABS:G:1,1997-03-13T16:00:00Z,29.5500,-93.4666,2.0,214.5694887,2.890328701,-99999.0,'11133222,11111222,99999999' 
TABS,ioos:station:TABS:G:1,1997-03-13T16:30:00Z,29.5500,-93.4666,2.0,203.0658506,2.27160736,-99999.0,'11133222,11111222,99999999' 
TABS,ioos:station:TABS:G:1,1997-03-13T17:00:00Z,29.5500,-93.4666,2.0,128.6127927,1.906882272,-99999.0,'11133222,11111222,99999999' 
TABS,ioos:station:TABS:G:1,1997-03-13T17:30:00Z,29.5500,-93.4666,2.0,183.0338221,2.833972477,-99999.0,'11133222,11111222,99999999' 
TABS,ioos:station:TABS:G:1,1997-03-13T18:00:00Z,29.5500,-93.4666,2.0,221.6066812,1.792121648,-99999.0,'11133222,11111222,99999999' 
TABS,ioos:station:TABS:G:1,1997-03-13T18:30:00Z,29.5500,-93.4666,2.0,338.198852,0.807774721,-99999.0,'11133222,11111222,99999999' 
TABS,ioos:station:TABS:G:1,1997-03-13T19:00:00Z,29.5500,-93.4666,2.0,336.3961506,2.597306297,-99999.0,'11133222,11111222,99999999' 
TABS,ioos:station:TABS:G:1,1997-03-13T19:30:00Z,29.5500,-93.4666,2.0,10.7070267,2.42216845,-99999.0,'11133222,11111222,99999999' 
TABS,ioos:station:TABS:G:1,1997-03-13T20:00:00Z,29.5500,-93.4666,2.0,32.38081245,1.941957775,-99999.0,'11133222,11111222,99999999' 
TABS,ioos:station:TABS:G:1,1997-03-13T20:30:00Z,29.5500,-93.4666,2.0,354.7742953,3.293690939,-99999.0,'11133222,11111222,99999999' 
TABS,ioos:station:TABS:G:1,1997-03-13T21:00:00Z,29.5500,-93.4666,2.0,11.32356932,8.352586426,-99999.0,'11133222,11111222,99999999' 
TABS,ioos:station:TABS:G:1,1997-03-13T21:30:00Z,29.5500,-93.4666,2.0,11.39894687,3.794851776,-99999.0,'11133222,11111222,99999999' 
TABS,ioos:station:TABS:G:1,1997-03-13T22:00:00Z,29.5500,-93.4666,2.0,333.2816141,1.668112706,-99999.0,'11133222,11111222,99999999' 
TABS,ioos:station:TABS:G:1,1997-03-13T22:30:00Z,29.5500,-93.4666,2.0,17.92507939,5.328648984,-99999.0,'11133222,11111222,99999999' 
TABS,ioos:station:TABS:G:1,1997-03-13T23:00:00Z,29.5500,-93.4666,2.0,14.39741499,5.389248556,-99999.0,'11133222,11111222,99999999' 
TABS,ioos:station:TABS:G:1,1997-03-13T23:30:00Z,29.5500,-93.4666,2.0,1.406531384,6.111840967,-99999.0,'11133222,11111222,99999999' 
TABS,ioos:station:TABS:G:1,1997-03-14T00:00:00Z,29.5500,-93.4666,2.0,338.6611366,3.682458418,-99999.0,'11133222,11111222,99999999' 
TABS,ioos:station:TABS:G:1,1997-03-14T00:30:00Z,29.5500,-93.4666,2.0,328.7544825,4.877478857,-99999.0,'11133222,11111222,99999999' 
TABS,ioos:station:TABS:G:1,1997-03-14T01:00:00Z,29.5500,-93.4666,2.0,330.6717842,4.266907545,-99999.0,'11133222,11111222,99999999' 
TABS,ioos:station:TABS:G:1,1997-03-14T01:30:00Z,29.5500,-93.4666,2.0,3.97269711,4.330404138,-99999.0,'11133222,11111222,99999999' 
TABS,ioos:station:TABS:G:1,1997-03-14T02:00:00Z,29.5500,-93.4666,2.0,45.00010523,0.848528137,-99999.0,'11133222,11111222,99999999' 
TABS,ioos:station:TABS:G:1,1997-03-14T02:30:00Z,29.5500,-93.4666,2.0,186.3868916,2.696738771,-99999.0,'11133222,11111222,99999999' 
TABS,ioos:station:TABS:G:1,1997-03-14T03:00:00Z,29.5500,-93.4666,2.0,202.7779251,5.010788361,-99999.0,'11133222,11111222,99999999' 
TABS,ioos:station:TABS:G:1,1997-03-14T03:30:00Z,29.5500,-93.4666,2.0,211.6402191,6.824404736,-99999.0,'11133222,11111222,99999999' 
TABS,ioos:station:TABS:G:1,1997-03-14T04:00:00Z,29.5500,-93.4666,2.0,217.5858621,13.91908761,-99999.0,'11111222,11111222,99999999' 
TABS,ioos:station:TABS:G:1,1997-03-14T04:30:00Z,29.5500,-93.4666,2.0,238.6650101,7.153355856,-99999.0,'11133222,11111222,99999999' 
TABS,ioos:station:TABS:G:1,1997-03-14T05:00:00Z,29.5500,-93.4666,2.0,220.8823914,7.287866629,-99999.0,'11133222,11111222,99999999' 
TABS,ioos:station:TABS:G:1,1997-03-14T05:30:00Z,29.5500,-93.4666,2.0,205.4559691,3.466554485,-99999.0,'11133222,11111222,99999999' 
TABS,ioos:station:TABS:G:1,1997-03-14T06:00:00Z,29.5500,-93.4666,2.0,244.4455847,3.801907416,-99999.0,'11133222,11111222,99999999' 
TABS,ioos:station:TABS:G:1,1997-03-14T06:30:00Z,29.5500,-93.4666,2.0,270.0004209,3.13,-99999.0,'11133222,11111222,99999999' 
TABS,ioos:station:TABS:G:1,1997-03-14T07:00:00Z,29.5500,-93.4666,2.0,287.6707724,7.346625076,-99999.0,'11133222,11111222,99999999' 
TABS,ioos:station:TABS:G:1,1997-03-14T07:30:00Z,29.5500,-93.4666,2.0,305.1020789,8.556073866,-99999.0,'11133222,11111222,99999999' 
TABS,ioos:station:TABS:G:1,1997-03-14T08:00:00Z,29.5500,-93.4666,2.0,320.6025721,10.79250203,-99999.0,'11111222,11111222,99999999' 
TABS,ioos:station:TABS:G:1,1997-03-14T08:30:00Z,29.5500,-93.4666,2.0,335.7885128,9.802244641,-99999.0,'11133222,11111222,99999999' 
TABS,ioos:station:TABS:G:1,1997-03-14T09:00:00Z,29.5500,-93.4666,2.0,343.719611,10.09480064,-99999.0,'11111222,11111222,99999999' 
TABS,ioos:station:TABS:G:1,1997-03-14T09:30:00Z,29.5500,-93.4666,2.0,349.751786,10.90396717,-99999.0,'11111222,11111222,99999999' 
TABS,ioos:station:TABS:G:1,1997-03-14T10:00:00Z,29.5500,-93.4666,2.0,344.2103836,13.15644329,-99999.0,'11111222,11111222,99999999' 
TABS,ioos:station:TABS:G:1,1997-03-14T10:30:00Z,29.5500,-93.4666,2.0,336.9672835,14.08267375,-99999.0,'11111222,11111222,99999999' 
TABS,ioos:station:TABS:G:1,1997-03-14T11:00:00Z,29.5500,-93.4666,2.0,333.1937601,14.85656757,-99999.0,'11111222,11111222,99999999' 
TABS,ioos:station:TABS:G:1,1997-03-14T11:30:00Z,29.5500,-93.4666,2.0,335.1062574,13.80240921,-99999.0,'11111222,11111222,99999999' 
TABS,ioos:station:TABS:G:1,1997-03-14T12:00:00Z,29.5500,-93.4666,2.0,334.9422083,15.13447059,-99999.0,'11111222,11111222,99999999' 
TABS,ioos:station:TABS:G:1,1997-03-14T12:30:00Z,29.5500,-93.4666,2.0,340.0578725,14.42497834,-99999.0,'11111222,11111222,99999999' 
TABS,ioos:station:TABS:G:1,1997-03-14T13:00:00Z,29.5500,-93.4666,2.0,336.2968175,15.94515914,-99999.0,'11111222,11111222,99999999' 
TABS,ioos:station:TABS:G:1,1997-03-14T13:30:00Z,29.5500,-93.4666,2.0,308.1881664,11.56505945,-99999.0,'11111222,11111222,99999999' 
TABS,ioos:station:TABS:G:1,1997-03-14T14:00:00Z,29.5500,-93.4666,2.0,265.5726178,7.773191108,-99999.0,'11133222,11111222,99999999' 
TABS,ioos:station:TABS:G:1,1997-03-14T14:30:00Z,29.5500,-93.4666,2.0,271.7484738,9.834576758,-99999.0,'11133222,11111222,99999999' 
TABS,ioos:station:TABS:G:1,1997-03-14T15:00:00Z,29.5500,-93.4666,2.0,275.3077354,12.86515449,-99999.0,'11111222,11111222,99999999' 
TABS,ioos:station:TABS:G:1,1997-03-14T15:30:00Z,29.5500,-93.4666,2.0,256.9815887,16.51443308,-99999.0,'11111222,11111222,99999999' 
TABS,ioos:station:TABS:G:1,1997-03-14T16:00:00Z,29.5500,-93.4666,2.0,269.5558943,19.37058079,-99999.0,'11111222,11111222,99999999' 
TABS,ioos:station:TABS:G:1,1997-03-14T16:30:00Z,29.5500,-93.4666,2.0,273.2214536,18.50924094,-99999.0,'11111222,11111222,99999999' 
TABS,ioos:station:TABS:G:1,1997-03-14T17:00:00Z,29.5500,-93.4666,2.0,282.6716243,18.3263417,-99999.0,'11111222,11111222,99999999' 
TABS,ioos:station:TABS:G:1,1997-03-14T17:30:00Z,29.5500,-93.4666,2.0,283.218178,20.20527901,-99999.0,'11111222,11111222,99999999' 
TABS,ioos:station:TABS:G:1,1997-03-14T18:00:00Z,29.5500,-93.4666,2.0,288.8347581,26.76300618,-99999.0,'11111222,11111222,99999999' 
TABS,ioos:station:TABS:G:1,1997-03-14T18:30:00Z,29.5500,-93.4666,2.0,297.14658,26.45404506,-99999.0,'11111222,11111222,99999999' 
TABS,ioos:station:TABS:G:1,1997-03-14T19:00:00Z,29.5500,-93.4666,2.0,308.7921838,22.36258035,-99999.0,'11111222,11111222,99999999' 
TABS,ioos:station:TABS:G:1,1997-03-14T19:30:00Z,29.5500,-93.4666,2.0,308.8422393,21.6208048,-99999.0,'11111222,11111222,99999999' 
TABS,ioos:station:TABS:G:1,1997-03-14T20:00:00Z,29.5500,-93.4666,2.0,310.1965715,25.16239257,-99999.0,'11111222,11111222,99999999' 
TABS,ioos:station:TABS:G:1,1997-03-14T20:30:00Z,29.5500,-93.4666,2.0,287.399496,36.38478803,-99999.0,'11111222,11111222,99999999' 
TABS,ioos:station:TABS:G:1,1997-03-14T21:00:00Z,29.5500,-93.4666,2.0,286.5423265,31.39957962,-99999.0,'11111222,11111222,99999999' 
TABS,ioos:station:TABS:G:1,1997-03-14T21:30:00Z,29.5500,-93.4666,2.0,274.5927454,37.21948952,-99999.0,'11111222,11111222,99999999' 
TABS,ioos:station:TABS:G:1,1997-03-14T22:00:00Z,29.5500,-93.4666,2.0,268.5767173,41.88291418,-99999.0,'11111222,11111222,99999999' 
TABS,ioos:station:TABS:G:1,1997-03-14T22:30:00Z,29.5500,-93.4666,2.0,264.1763163,45.53497996,-99999.0,'11111222,11111222,99999999' 
TABS,ioos:station:TABS:G:1,1997-03-14T23:00:00Z,29.5500,-93.4666,2.0,253.0161162,54.05750734,-99999.0,'11111222,11111222,99999999' 
TABS,ioos:station:TABS:G:1,1997-03-14T23:30:00Z,29.5500,-93.4666,2.0,251.408932,52.35170007,-99999.0,'11111222,11111222,99999999' 
TABS,ioos:station:TABS:G:1,1997-03-15T00:00:00Z,29.5500,-93.4666,2.0,243.1885085,61.43429824,-99999.0,'11111222,11111222,99999999' 
TABS,ioos:station:TABS:G:1,1997-03-15T00:30:00Z,29.5500,-93.4666,2.0,241.893731,64.52942275,-99999.0,'11111222,11111222,99999999' 
TABS,ioos:station:TABS:G:1,1997-03-15T01:00:00Z,29.5500,-93.4666,2.0,240.7203236,68.84527144,-99999.0,'11111222,11111222,99999999' 
TABS,ioos:station:TABS:G:1,1997-03-15T01:30:00Z,29.5500,-93.4666,2.0,241.6317525,69.93857662,-99999.0,'11111222,11111222,99999999' 
TABS,ioos:station:TABS:G:1,1997-03-15T02:00:00Z,29.5500,-93.4666,2.0,243.6967708,73.29907571,-99999.0,'11111222,11111222,99999999' 
TABS,ioos:station:TABS:G:1,1997-03-15T02:30:00Z,29.5500,-93.4666,2.0,243.6092122,66.03139405,-99999.0,'11111222,11111222,99999999' 
TABS,ioos:station:TABS:G:1,1997-03-15T03:00:00Z,29.5500,-93.4666,2.0,241.3603044,68.07921416,-99999.0,'11111222,11111222,99999999' 
TABS,ioos:station:TABS:G:1,1997-03-15T03:30:00Z,29.5500,-93.4666,2.0,246.0928926,64.70093431,-99999.0,'11111222,11111222,99999999' 
TABS,ioos:station:TABS:G:1,1997-03-15T04:00:00Z,29.5500,-93.4666,2.0,246.8044139,66.95183717,-99999.0,'11111222,11111222,99999999' 
TABS,ioos:station:TABS:G:1,1997-03-15T04:30:00Z,29.5500,-93.4666,2.0,250.6406302,58.43384122,-99999.0,'11111222,11111222,99999999' 
TABS,ioos:station:TABS:G:1,1997-03-15T05:00:00Z,29.5500,-93.4666,2.0,249.0365482,60.79387634,-99999.0,'11111222,11111222,99999999' 
TABS,ioos:station:TABS:G:1,1997-03-15T05:30:00Z,29.5500,-93.4666,2.0,255.7442335,65.95076952,-99999.0,'11111222,11111222,99999999' 
TABS,ioos:station:TABS:G:1,1997-03-15T06:00:00Z,29.5500,-93.4666,2.0,253.6358155,70.349715,-99999.0,'11111222,11111222,99999999' 
TABS,ioos:station:TABS:G:1,1997-03-15T06:30:00Z,29.5500,-93.4666,2.0,261.2829774,67.8334792,-99999.0,'11111222,11111222,99999999' 
TABS,ioos:station:TABS:G:1,1997-03-15T07:00:00Z,29.5500,-93.4666,2.0,263.0309577,66.3501477,-99999.0,'11111222,11111222,99999999' 
TABS,ioos:station:TABS:G:1,1997-03-15T07:30:00Z,29.5500,-93.4666,2.0,264.9536717,67.76261211,-99999.0,'11111222,11111222,99999999' 
TABS,ioos:station:TABS:G:1,1997-03-15T08:00:00Z,29.5500,-93.4666,2.0,272.6084151,62.19441936,-99999.0,'11111222,11111222,99999999' 
TABS,ioos:station:TABS:G:1,1997-03-15T08:30:00Z,29.5500,-93.4666,2.0,272.8770263,56.39105692,-99999.0,'11111222,11111222,99999999' 
TABS,ioos:station:TABS:G:1,1997-03-15T09:00:00Z,29.5500,-93.4666,2.0,277.8573809,53.40131085,-99999.0,'11111222,11111222,99999999' 
TABS,ioos:station:TABS:G:1,1997-03-15T09:30:00Z,29.5500,-93.4666,2.0,273.1828156,61.78528142,-99999.0,'11111222,11111222,99999999' 
TABS,ioos:station:TABS:G:1,1997-03-15T10:00:00Z,29.5500,-93.4666,2.0,277.0747491,61.70978529,-99999.0,'11111222,11111222,99999999' 
TABS,ioos:station:TABS:G:1,1997-03-15T10:30:00Z,29.5500,-93.4666,2.0,282.4097465,52.02546011,-99999.0,'11111222,11111222,99999999' 
TABS,ioos:station:TABS:G:1,1997-03-15T11:00:00Z,29.5500,-93.4666,2.0,282.1362234,54.55929343,-99999.0,'11111222,11111222,99999999' 